Location: *
(58.4167°N, 22.5000°E)
Time: 04:18:12
(UTC+00:00)

Nadezhda 3 Rocket - Pass Details

Date: 22 September 2019
Orbit: 958 x 999 km, 82.9° (Epoch: 15 October)

Event Time Altitude Azimuth Distance (km) Brightness Sun altitude
Exits shadow 18:45:34 22° 155° (SSE) 1,991 5.2 -17.6°
Maximum altitude 18:49:24 49° 91° (E) 1,236 4.2 -18.0°
Drops below altitude 10° 18:55:23 10° 19° (NNE) 2,737 6.5 -18.7°
Sets 18:57:59 0° 14° (NNE) 3,695 7.3 -19.0°
